Regional Weather Roundup
Issued by NWS

Home | Current Version | Previous Version | Graphics & Text | Print | Product List | Glossary On
Versions: 1 2 3 4 5 6 7 8 9 10 11 12 13 14 15 16 17 18 19 20 21 22 23 24 25 26 27 28 29 30 31 32 33 34 35 36 37 38 39 40 41 42 43 44 45 46 47 48 49 50
000
ASUS43 KOAX 312010
RWRNE

WEATHER ROUNDUP FOR NEBRASKA
NATIONAL WEATHER SERVICE OMAHA NE
300 PM CDT THU JUL 31 2014

NOTES: SATELLITE DATA IS BEING USED TO AUGMENT CLOUD COVER ABOVE
       12000 FEET.
       "FAIR" INDICATES FEW OR NO CLOUDS BELOW 12,000 FEET WITH NO
       SIGNIFICANT WEATHER AND/OR OBSTRUCTIONS TO VISIBILITY.

  * THESE STATIONS DO NOT REPORT WEATHER SUCH AS RAIN...SNOW OR FOG.

NEZ001>004-019>022-054>056-312100-
NEBRASKA PANHANDLE

CITY           SKY/WX    TMP DP  RH WIND       PRES   REMARKS
SCOTTSBLUFF    SUNNY     85  46  25 VRB6      30.19F
ALLIANCE       SUNNY     85  40  20 NW6       30.18F
CHADRON        SUNNY     86  47  25 VRB5      30.15F
KIMBALL        SUNNY     78  43  28 SW6       30.23F
SIDNEY         MOSUNNY   84  43  23 NW8       30.22S
$$

NEZ057>060-069>072-079>082-312100-
SOUTHWEST NEBRASKA

CITY           SKY/WX    TMP DP  RH WIND       PRES   REMARKS
NORTH PLATTE   MOSUNNY   87  51  28 NW8G18    30.09F
IMPERIAL       SUNNY     84  49  29 NW8       30.16F
LEXINGTON      SUNNY     89  55  31 NW8G16    30.07S
MCCOOK         SUNNY     87  50  27 W13G18    30.11F
OGALLALA       MOSUNNY   85  47  26 NW5       30.13F
$$

NEZ005>010-023>029-035>040-094-312100-
NORTH CENTRAL NEBRASKA

CITY           SKY/WX    TMP DP  RH WIND       PRES   REMARKS
VALENTINE      SUNNY     86  51  29 MISG      30.10F
AINSWORTH      SUNNY     84  50  31 NW10G18   30.10S
BROKEN BOW     SUNNY     87  53  31 NW17      30.06F
O`NEILL        MOSUNNY   81  63  53 NW6       30.05S
ORD            MOSUNNY   89  54  30 NW9       30.02F
THEDFORD       SUNNY     87  51  29 N15       30.11F
$$

NEZ041-046>049-061>064-073>077-083>087-312100-
SOUTH CENTRAL NEBRASKA

CITY           SKY/WX    TMP DP  RH WIND       PRES   REMARKS
GRAND ISLAND   MOSUNNY   91  57  31 SW16G23   30.03F
AURORA         SUNNY     86  62  43 SW10      30.04F
HASTINGS       SUNNY     87  52  29 SW8       30.05F
HEBRON         SUNNY     85  52  31 SW7       30.07F
HOLDREGE       SUNNY     87  53  30 SW10      30.07F
KEARNEY *      MOSUNNY   90  57  33 S20       30.05F
YORK           SUNNY     84  63  48 S12G17    30.05F
$$

NEZ011>018-030>034-042>045-312100-
NORTHEAST NEBRASKA

CITY           SKY/WX    TMP DP  RH WIND       PRES   REMARKS
NORFOLK        SUNNY     83  60  45 SE10G20   30.03F
ALBION         MOSUNNY   87  55  34 W6        30.01F
BLAIR          MOSUNNY   81  56  42 S5        30.06F
COLUMBUS *     MOSUNNY   82  61  47 S14       30.04S
FREMONT        MOSUNNY   84  57  39 S7        30.05F
TEKAMAH        PTSUNNY   81  56  42 E3        30.05F
WAYNE          CLOUDY    83  61  47 E5        30.06F
$$

NEZ050>053-065>068-078-088>093-312100-
SOUTHEAST NEBRASKA

CITY           SKY/WX    TMP DP  RH WIND       PRES   REMARKS
LINCOLN        SUNNY     87  56  34 S10       30.05F
OMAHA EPPLEY   CLOUDY    84  54  35 S7        30.05F
BEATRICE       SUNNY     84  56  39 W7        30.07F
FALLS CITY     SUNNY     85  55  35 VRB6      30.07F
NEBRASKA CITY  SUNNY     82  51  34 S8        30.07F
PLATTSMOUTH    SUNNY     84  52  33 SE8       30.06F
$$

NEZ044-045-051>053-067-312100-
OMAHA AREA

CITY           SKY/WX    TMP DP  RH WIND       PRES   REMARKS
OMAHA EPPLEY   CLOUDY    84  54  35 S7        30.05F
BLAIR          MOSUNNY   81  56  42 S5        30.06F
FREMONT        MOSUNNY   84  57  39 S7        30.05F
MILLARD        SUNNY     83  56  40 SW5G22    30.05F
OFFUTT AFB     MOSUNNY   84  57  40 E8        30.05F
PLATTSMOUTH    SUNNY     84  52  33 SE8       30.06F
WAHOO          FAIR      86  53  31 SW8G17    30.04F
$$


USA.gov is the U.S. government's official web portal to all federal, state and local government web resources and services.